M3YFM-13 Weather Reports


time (UTC)temp
C
wind
direction
speed
KPH
gust
KPH
rain 1hr
cm
rain 24hr
cm
rain mn
cm
humidity
%
barometer
mb
20260506135459 13 104 4.8 11.3 0.00 0.00 0.00 40
20260506134959 14 114 4.8 12.9 0.00 0.00 0.00 39
20260506134459 15 52 8.0 19.3 0.00 0.00 0.00 39
20260506133958 14 83 4.8 14.5 0.00 0.00 0.00 41
20260506133458 14 114 6.4 16.1 0.00 0.00 0.00 41
20260506132958 13 111 4.8 11.3 0.00 0.00 0.00 41
20260506132457 15 83 8.0 14.5 0.00 0.00 0.00 40
20260506131957 14 97 3.2 16.1 0.00 0.00 0.00 40
20260506131457 14 82 4.8 16.1 0.00 0.00 0.00 40
20260506130956 14 86 4.8 17.7 0.00 0.00 0.00 39
20260506130456 14 100 8.0 19.3 0.00 0.00 0.00 41
20260506125956 13 98 8.0 19.3 0.00 0.00 0.00 41
20260506125455 14 83 6.4 16.1 0.00 0.00 0.00 41
20260506124955 14 56 4.8 14.5 0.00 0.00 0.00 43
20260506124455 14 115 4.8 12.9 0.00 0.00 0.00 41
20260506123955 14 65 4.8 16.1 0.00 0.00 0.00 41
20260506123454 14 108 8.0 16.1 0.00 0.00 0.00 40
20260506122954 14 56 4.8 11.3 0.00 0.00 0.00 42
20260506122454 13 15 4.8 14.5 0.00 0.00 0.00 44
20260506121954 13 80 3.2 12.9 0.00 0.00 0.00 45
20260506120953 13 72 4.8 11.3 0.00 0.00 0.00 44
20260506120453 13 58 4.8 16.1 0.00 0.00 0.00 46
20260506115951 13 121 4.8 11.3 0.00 0.00 0.00 46
20260506115451 13 101 4.8 12.9 0.00 0.00 0.00 46
20260506114951 13 103 4.8 16.1 0.00 0.00 0.00 45
20260506114450 13 45 3.2 17.7 0.00 0.00 0.00 47
20260506113950 12 75 4.8 16.1 0.00 0.00 0.00 49
20260506112950 12 93 3.2 12.9 0.00 0.00 0.00 49
20260506112449 12 108 4.8 16.1 0.00 0.00 0.00 50
20260506111949 12 87 4.8 12.9 0.00 0.00 0.00 49
20260506111449 11 104 4.8 11.3 0.00 0.00 0.00 50
20260506110948 11 96 4.8 11.3 0.00 0.00 0.00 51
20260506105948 12 28 4.8 14.5 0.00 0.00 0.00 50
20260506105448 11 107 4.8 14.5 0.00 0.00 0.00 51
20260506104947 11 101 6.4 14.5 0.00 0.00 0.00 52
20260506104447 11 97 8.0 14.5 0.00 0.00 0.00 52
20260506103947 11 108 8.0 19.3 0.00 0.00 0.00 52
20260506103446 11 79 8.0 16.1 0.00 0.00 0.00 51
20260506102946 12 83 4.8 12.9 0.00 0.00 0.00 52
20260506102446 11 100 4.8 12.9 0.00 0.00 0.00 50
20260506101946 11 69 4.8 14.5 0.00 0.00 0.00 51
20260506101445 11 101 4.8 12.9 0.00 0.00 0.00 53
20260506100945 11 107 6.4 14.5 0.00 0.00 0.00 54
20260506100445 11 76 4.8 11.3 0.00 0.00 0.00 56
20260506095944 10 101 4.8 11.3 0.00 0.00 0.00 57
20260506095444 10 90 4.8 12.9 0.00 0.00 0.00 57
20260506094944 10 105 4.8 12.9 0.00 0.00 0.00 58
20260506094444 10 103 6.4 12.9 0.00 0.00 0.00 59
20260506093943 11 121 6.4 11.3 0.00 0.00 0.00 59
20260506092943 11 73 3.2 11.3 0.00 0.00 0.00 58
20260506092442 11 114 4.8 9.7 0.00 0.00 0.00 59
20260506091942 11 91 4.8 11.3 0.00 0.00 0.00 60
20260506091442 10 73 1.6 9.7 0.00 0.00 0.00 60
20260506090942 10 60 3.2 8.0 0.00 0.00 0.00 61
20260506090441 10 55 4.8 14.5 0.00 0.00 0.00 62
20260506085941 10 86 3.2 8.0 0.00 0.00 0.00 62
20260506085441 10 76 4.8 12.9 0.00 0.00 0.00 62
20260506084940 10 82 6.4 12.9 0.00 0.00 0.00 62
20260506082939 10 87 4.8 9.7 0.00 0.00 0.00 63
20260506081438 10 118 3.2 11.3 0.00 0.00 0.00 64
20260506080937 9 148 1.6 6.4 0.00 0.00 0.00 65
20260506080437 8 104 3.2 9.7 0.00 0.00 0.00 65
20260506073435 8 98 4.8 9.7 0.00 0.00 0.00 69
20260506072935 8 87 6.4 16.1 0.00 0.00 0.00 69
20260506072435 8 73 6.4 12.9 0.00 0.00 0.00 70
20260506071934 8 104 8.0 16.1 0.00 0.00 0.00 69
20260506070934 8 89 4.8 9.7 0.00 0.00 0.00 71
20260506070434 8 68 4.8 11.3 0.00 0.00 0.00 71
20260506062431 8 103 3.2 8.0 0.00 0.00 0.00 73
20260506061931 7 111 3.2 11.3 0.00 0.00 0.00 73
20260506061431 7 91 3.2 12.9 0.00 0.00 0.00 73
20260506060930 7 104 4.8 11.3 0.00 0.00 0.00 74
20260506060430 7 129 3.2 12.9 0.00 0.00 0.00 74
20260506050927 8 84 3.2 11.3 0.00 0.00 0.00 74
20260506050427 8 87 3.2 11.3 0.00 0.00 0.00 74
20260506044926 8 114 3.2 12.9 0.00 0.00 0.00 73
20260506044426 8 101 6.4 14.5 0.00 0.00 0.00 73
20260506043925 8 97 1.6 8.0 0.00 0.00 0.00 74
20260506043425 8 128 4.8 11.3 0.00 0.00 0.00 74
20260506042925 8 82 3.2 9.7 0.00 0.00 0.00 73
20260506042425 8 136 1.6 6.4 0.00 0.00 0.00 73
20260506041924 8 101 3.2 11.3 0.00 0.00 0.00 72
20260506041424 8 134 1.6 8.0 0.00 0.00 0.00 72
20260506040924 8 103 1.6 8.0 0.00 0.00 0.00 72
20260506040423 8 104 3.2 9.7 0.00 0.00 0.00 72
20260506035923 8 128 3.2 11.3 0.00 0.00 0.00 71
20260506035423 8 115 4.8 11.3 0.00 0.00 0.00 71
20260506034923 8 111 4.8 16.1 0.00 0.00 0.00 71
20260506034422 8 79 6.4 11.3 0.00 0.00 0.00 72
20260506033922 8 59 6.4 12.9 0.00 0.00 0.00 72
20260506033422 8 84 1.6 9.7 0.00 0.00 0.00 74
20260506032921 8 101 1.6 8.0 0.00 0.00 0.00 74
20260506032421 8 89 4.8 11.3 0.00 0.00 0.00 75
20260506031921 8 96 6.4 11.3 0.00 0.00 0.00 74
20260506031421 8 120 4.8 11.3 0.00 0.00 0.00 74
20260506030920 8 86 4.8 12.9 0.00 0.00 0.00 75
20260506030420 8 94 6.4 11.3 0.00 0.00 0.00 74
20260506025920 8 110 3.2 9.7 0.00 0.00 0.00 73
20260506025419 8 82 4.8 12.9 0.00 0.00 0.00 73
20260506024919 8 98 3.2 8.0 0.00 0.00 0.00 72
20260506024419 8 83 4.8 11.3 0.00 0.00 0.00 72
20260506023919 9 103 3.2 9.7 0.00 0.00 0.00 72
20260506023418 9 118 4.8 11.3 0.00 0.00 0.00 71
20260506022918 9 105 1.6 6.4 0.00 0.00 0.00 71
20260506022418 9 111 3.2 11.3 0.00 0.00 0.00 71
20260506021917 9 129 4.8 14.5 0.00 0.00 0.00 71
20260506021417 9 122 4.8 14.5 0.00 0.00 0.00 70
20260506020917 9 118 3.2 12.9 0.00 0.00 0.00 70
20260506020417 10 80 6.4 16.1 0.00 0.00 0.00 70
20260506015916 9 75 3.2 12.9 0.00 0.00 0.00 70
20260506015416 10 149 3.2 8.0 0.00 0.00 0.00 71
20260506014916 10 89 6.4 14.5 0.00 0.00 0.00 71
20260506014416 10 90 4.8 9.7 0.00 0.00 0.00 72
20260506013915 9 128 6.4 11.3 0.00 0.00 0.00 72
20260506013415 9 110 8.0 16.1 0.00 0.00 0.00 72
20260506012915 10 90 8.0 16.1 0.00 0.00 0.00 72
20260506012414 10 97 3.2 14.5 0.00 0.00 0.00 72
20260506011914 10 86 4.8 14.5 0.00 0.00 0.00 73
20260506011414 10 91 6.4 14.5 0.00 0.00 0.00 72
20260506010914 10 97 8.0 14.5 0.00 0.00 0.00 72
20260506010414 10 117 4.8 11.3 0.00 0.00 0.00 72
20260506005913 10 150 4.8 9.7 0.00 0.00 0.00 72
20260506005413 10 149 6.4 17.7 0.00 0.00 0.00 72
20260506004912 10 120 4.8 11.3 0.00 0.00 0.00 72
20260506004412 10 110 8.0 19.3 0.00 0.00 0.00 72
20260506003912 10 118 6.4 12.9 0.00 0.00 0.00 72
20260506003412 10 93 3.2 14.5 0.00 0.00 0.00 72
20260506002911 10 152 6.4 14.5 0.00 0.00 0.00 72
20260506002411 10 115 4.8 11.3 0.00 0.00 0.00 71
20260506001911 10 152 6.4 14.5 0.00 0.00 0.00 71
20260506001410 10 174 6.4 14.5 0.00 0.00 0.00 71
20260506000910 11 146 6.4 16.1 0.00 0.00 0.00 70
20260506000410 11 110 6.4 14.5 0.00 0.00 0.00 70
20260505235910 10 150 8.0 17.7 0.00 0.00 0.00 70
20260505235409 10 138 6.4 16.1 0.00 0.00 0.00 70
20260505234909 11 118 4.8 17.7 0.00 0.00 0.00 69
20260505234407 11 131 8.0 19.3 0.00 0.00 0.00 70
20260505233906 11 124 4.8 12.9 0.00 0.00 0.00 70
20260505233406 11 108 6.4 16.1 0.00 0.00 0.00 70
20260505232906 11 83 4.8 16.1 0.00 0.00 0.00 70
20260505232405 11 134 8.0 17.7 0.00 0.00 0.00 69
20260505231905 11 188 6.4 14.5 0.00 0.00 0.00 69
20260505231405 11 91 4.8 14.5 0.00 0.00 0.00 69
20260505230904 11 127 4.8 12.9 0.00 0.00 0.00 68
20260505230404 11 146 6.4 14.5 0.00 0.00 0.00 68
20260505225904 11 142 6.4 17.7 0.00 0.00 0.00 68
20260505225403 11 148 3.2 11.3 0.00 0.00 0.00 68
20260505224903 11 153 3.2 11.3 0.00 0.00 0.00 67
20260505224403 11 35 1.6 9.7 0.00 0.00 0.00 67
20260505223902 11 129 3.2 9.7 0.00 0.00 0.00 66
20260505223402 11 68 6.4 14.5 0.00 0.00 0.00 66
20260505222902 11 145 6.4 14.5 0.00 0.00 0.00 66
20260505222402 11 146 4.8 14.5 0.00 0.00 0.00 66
20260505221901 12 97 6.4 14.5 0.00 0.00 0.00 65
20260505221401 11 86 4.8 12.9 0.00 0.00 0.00 64
20260505220901 11 89 8.0 16.1 0.00 0.00 0.00 64
20260505220401 11 135 3.2 8.0 0.00 0.00 0.00 64
20260505215900 12 44 1.6 8.0 0.00 0.00 0.00 63
20260505215359 12 52 3.2 8.0 0.00 0.00 0.00 63
20260505214859 12 41 1.6 6.4 0.00 0.00 0.00 63
20260505214359 12 103 0.0 3.2 0.00 0.00 0.00 62
20260505213859 12 52 1.6 4.8 0.00 0.00 0.00 62
20260505213358 12 89 1.6 6.4 0.00 0.00 0.00 62
20260505212858 12 56 1.6 8.0 0.00 0.00 0.00 61
20260505212358 12 46 1.6 9.7 0.00 0.00 0.00 61
20260505211857 12 7 1.6 6.4 0.00 0.00 0.00 60
20260505211357 12 55 1.6 8.0 0.00 0.00 0.00 60
20260505210857 12 46 1.6 6.4 0.00 0.00 0.00 59
20260505210357 12 15 1.6 6.4 0.00 0.00 0.00 59
20260505205856 12 124 1.6 8.0 0.00 0.00 0.00 58
20260505205356 12 38 3.2 11.3 0.00 0.00 0.00 58
20260505204856 12 28 1.6 9.7 0.00 0.00 0.00 58
20260505204356 12 76 1.6 6.4 0.00 0.00 0.00 58
20260505203855 12 55 3.2 9.7 0.00 0.00 0.00 57
20260505203355 12 75 1.6 6.4 0.00 0.00 0.00 57
20260505202855 12 23 1.6 8.0 0.00 0.00 0.00 57
20260505201854 13 63 1.6 8.0 0.00 0.00 0.00 57
20260505201354 13 62 4.8 9.7 0.00 0.00 0.00 56
20260505200854 13 49 3.2 9.7 0.00 0.00 0.00 56
20260505200353 13 82 3.2 9.7 0.00 0.00 0.00 56
20260505195853 13 84 1.6 6.4 0.00 0.00 0.00 55
20260505195353 13 75 1.6 8.0 0.00 0.00 0.00 54
20260505194852 13 65 1.6 9.7 0.00 0.00 0.00 54
20260505194352 13 68 1.6 4.8 0.00 0.00 0.00 54
20260505193852 13 49 1.6 11.3 0.00 0.00 0.00 53
20260505193352 13 59 1.6 6.4 0.00 0.00 0.00 54
20260505192851 13 52 1.6 8.0 0.00 0.00 0.00 54
20260505192351 13 59 3.2 8.0 0.00 0.00 0.00 54
20260505191851 13 30 3.2 8.0 0.00 0.00 0.00 53
20260505191350 13 30 3.2 8.0 0.00 0.00 0.00 52
20260505190850 13 75 3.2 9.7 0.00 0.00 0.00 51
20260505190350 13 94 4.8 12.9 0.00 0.00 0.00 50
20260505185849 13 103 3.2 11.3 0.00 0.00 0.00 50
20260505185349 14 142 3.2 9.7 0.00 0.00 0.00 50
20260505184849 14 93 6.4 14.5 0.00 0.00 0.00 50
20260505184349 14 73 6.4 16.1 0.00 0.00 0.00 50
20260505183348 14 117 4.8 11.3 0.00 0.00 0.00 50
20260505182848 14 60 6.4 16.1 0.00 0.00 0.00 49
20260505181847 14 113 3.2 11.3 0.00 0.00 0.00 48
20260505181347 15 118 3.2 9.7 0.00 0.00 0.00 48
20260505180847 15 108 3.2 9.7 0.00 0.00 0.00 48
20260505180346 15 8 3.2 9.7 0.00 0.00 0.00 48
20260505175846 15 62 3.2 8.0 0.00 0.00 0.00 48
20260505175346 15 90 3.2 9.7 0.00 0.00 0.00 49
20260505174846 15 84 4.8 9.7 0.00 0.00 0.00 49
20260505174345 15 107 4.8 12.9 0.00 0.00 0.00 48
20260505173845 15 21 3.2 9.7 0.00 0.00 0.00 47
20260505173345 15 18 3.2 11.3 0.00 0.00 0.00 47
20260505172844 15 21 3.2 9.7 0.00 0.00 0.00 46
20260505172344 15 70 3.2 9.7 0.00 0.00 0.00 46
20260505171844 15 80 3.2 11.3 0.00 0.00 0.00 46
20260505171344 15 23 6.4 12.9 0.00 0.00 0.00 46
20260505170843 15 34 4.8 11.3 0.00 0.00 0.00 45
20260505170343 15 30 4.8 12.9 0.00 0.00 0.00 46
20260505165843 15 357 4.8 16.1 0.00 0.00 0.00 46
20260505165342 15 89 3.2 11.3 0.00 0.00 0.00 46
20260505164842 15 48 6.4 14.5 0.00 0.00 0.00 46
20260505163842 15 69 4.8 12.9 0.00 0.00 0.00 46
20260505163341 15 100 3.2 9.7 0.00 0.00 0.00 46
20260505162841 15 23 4.8 9.7 0.00 0.00 0.00 46
20260505162340 15 38 4.8 14.5 0.00 0.00 0.00 46
20260505161340 15 89 4.8 12.9 0.00 0.00 0.00 47
20260505160839 15 52 6.4 16.1 0.00 0.00 0.00 46
20260505160339 15 68 4.8 14.5 0.00 0.00 0.00 46
20260505153337 15 76 3.2 12.9 0.00 0.00 0.00 46
20260505152837 15 41 3.2 9.7 0.00 0.00 0.00 46
20260505152337 15 72 4.8 12.9 0.00 0.00 0.00 46
20260505151836 15 96 4.8 11.3 0.00 0.00 0.00 46
20260505151336 15 103 3.2 11.3 0.00 0.00 0.00 47
20260505150836 15 83 4.8 14.5 0.00 0.00 0.00 46
20260505150335 16 110 3.2 9.7 0.00 0.00 0.00 45
20260505140332 16 93 4.8 12.9 0.00 0.00 0.00 45